Temperature
28 29 30 30 30 30 30 30 30 31 31 31 31 31 31 29 28 27 26 24 23 22 21 20 19 19 19 19 18 18 18 18 18 17 17 17 17 17 17 17 17 17 17 17
28 29 30 30 29 29 30 30 30 31 30 30 31 31 31 29 28 27 26 25 24 22 21 19 19 19 19 18 18 18 18 18 18 18 18 18 18 17 17 17 17 17 17 17
29 30 29 29 29 29 30 30 30 30 30 31 31 31 30 29 28 26 26 25 24 23 21 20 19 19 18 18 18 18 18 18 18 18 17 17 17 17 17 17 17 17 17 17
29 29 28 28 29 29 29 30 30 30 30 31 30 30 31 30 29 28 26 25 24 23 22 20 19 19 18 18 18 18 18 18 18 18 17 17 17 17 17 17 17 17 17 17
28 28 28 28 29 29 30 30 30 30 30 30 30 30 31 30 30 29 28 26 25 23 22 20 19 19 19 18 18 18 18 18 18 17 17 17 17 17 17 17 17 17 17 17
29 29 29 29 30 29 29 29 29 30 31 29 30 29 30 31 30 29 28 26 24 23 21 20 19 19 19 18 18 18 18 18 17 18 17 17 17 17 17 17 17 17 17 17
27 28 29 29 29 29 29 29 29 29 29 29 29 29 30 30 29 29 28 26 24 23 22 20 20 19 19 18 18 18 18 18 17 17 17 17 17 17 17 17 17 17 17 17
27 28 29 29 29 29 29 30 29 29 29 30 29 29 30 29 28 27 27 26 24 23 22 21 20 19 19 18 18 18 18 18 18 18 18 17 17 17 17 17 17 17 17 17
29 28 29 29 30 30 29 30 31 30 29 29 30 30 30 29 28 28 27 26 24 23 22 21 20 19 19 19 18 18 18 18 18 18 18 18 17 17 17 17 17 17 17 17
29 28 29 28 29 29 30 30 30 29 28 28 29 29 30 29 28 28 27 26 25 23 22 21 21 20 19 19 18 18 18 18 18 18 17 17 17 17 17 17 17 17 17 17
29 28 28 28 28 29 28 28 29 30 30 29 29 30 30 29 29 28 27 26 25 24 23 22 21 20 20 19 19 18 18 18 18 18 18 17 17 17 17 17 17 17 17 17
28 28 28 29 29 30 30 30 29 29 28 29 29 30 30 29 29 28 27 25 25 24 23 22 21 20 20 19 19 18 18 18 18 18 18 18 17 17 17 17 17 17 17 17
28 27 27 27 28 28 28 29 30 30 29 29 29 30 29 29 28 27 26 25 24 23 22 22 21 20 20 19 19 19 18 18 18 18 18 17 17 17 17 17 17 17 17 17
27 27 28 28 29 29 28 29 29 29 29 29 29 30 29 29 28 27 26 24 24 23 22 21 21 20 19 19 19 18 18 18 18 17 17 17 17 17 17 17 17 17 17 16
27 27 28 29 29 29 29 29 29 29 29 29 30 30 30 29 28 27 25 24 24 23 22 21 20 20 19 19 18 18 18 18 18 17 17 17 17 17 17 16 16 16 16 16
26 27 27 27 28 29 28 29 29 29 29 29 29 29 29 28 27 26 25 24 24 23 22 21 20 20 19 19 18 18 18 18 18 17 17 17 17 16 16 16 16 16 16 16
26 25 26 27 28 27 27 28 29 29 29 29 29 29 28 27 26 25 24 24 23 23 22 21 20 19 19 19 19 18 18 18 18 17 17 17 16 16 16 16 16 16 16 15
24 25 26 27 26 26 28 28 28 28 28 28 28 27 27 26 24 24 23 23 23 22 22 21 20 19 19 19 19 18 18 18 17 17 17 16 16 16 16 16 15 15 15 15
24 24 26 27 26 27 27 26 27 27 27 27 27 26 25 24 24 24 22 22 22 21 21 20 20 19 19 19 18 18 18 17 17 17 16 16 16 16 15 15 15 15 15 15
23 23 25 26 26 26 27 26 25 26 26 26 25 25 25 24 27 25 21 21 20 20 20 20 19 19 18 18 18 18 17 17 16 16 16 16 16 15 15 15 15 14 14 14
23 23 24 25 25 27 25 25 25 25 25 24 23 23 23 24 23 21 19 19 19 19 19 19 18 18 18 18 18 17 17 16 16 16 16 16 15 15 15 14 14 14 14 14
24 24 24 25 25 25 23 24 25 23 21 21 22 22 21 20 19 19 18 18 18 18 18 18 18 18 17 17 17 17 16 16 16 15 15 15 15 14 14 14 14 14 13 13
23 23 24 24 24 21 20 21 20 20 20 20 20 20 20 19 19 18 17 17 17 17 17 17 17 17 17 17 16 16 16 16 15 15 15 15 14 14 14 13 13 13 13 12
21 20 21 21 21 21 20 19 19 19 19 19 19 19 19 19 18 17 17 16 16 16 16 16 16 16 16 16 16 16 15 15 15 15 14 14 13 13 13 13 12 12 12 12
21 20 21 20 20 20 20 19 18 18 18 18 18 18 18 18 17 17 16 16 15 15 15 15 15 15 15 15 15 15 15 14 14 14 13 13 13 12 12 12 11 11 11 11
20 20 21 21 20 20 19 18 17 17 17 17 17 17 17 17 16 16 16 15 15 15 15 15 15 15 15 14 14 14 14 14 14 13 13 12 12 12 12 11 11 11 10 10
Wind_Speed
8 10 11 8 7 5 5 6 5 2 3 5 5 5 2 3 5 5 6 7 8 8 8 9 9 10 10 10 11 12 12 11 9 8 9 8 8 7 6 6 8 8 8 8
8 12 9 5 5 6 7 8 6 2 1 4 5 6 2 3 4 5 6 8 8 9 9 9 10 10 11 11 11 11 12 11 11 9 8 7 6 6 6 6 7 9 9 9
13 4 6 8 9 9 9 8 5 4 4 5 6 6 4 4 4 4 5 6 7 9 10 10 10 10 10 11 12 11 12 11 11 10 8 6 6 5 6 7 7 9 10 9
11 6 7 10 11 10 9 5 5 5 7 4 4 6 3 3 4 5 6 7 7 8 9 9 10 10 10 10 10 10 12 11 11 10 10 10 9 9 8 7 7 8 10 10
9 9 11 12 10 10 4 1 4 6 7 8 5 8 1 3 2 3 4 6 7 8 9 9 9 9 9 9 9 9 10 10 11 11 11 11 10 8 7 7 7 7 7 9
6 6 9 9 8 8 5 5 4 7 8 9 4 6 4 1 1 0 3 5 7 8 9 9 9 8 8 8 8 8 9 10 10 11 11 12 11 9 8 8 8 7 6 7
10 10 8 7 10 10 10 9 7 8 7 5 2 6 3 3 2 1 1 5 7 9 10 10 9 9 9 9 9 8 9 9 10 11 12 11 11 10 10 9 9 8 7 7
12 12 13 12 13 10 14 13 9 6 5 2 4 4 1 2 1 1 3 6 8 9 9 9 9 9 9 9 9 8 9 8 9 10 10 9 9 8 8 9 7 7 6 6
10 8 9 10 11 10 11 12 10 7 6 6 3 2 2 3 3 4 5 7 8 9 9 9 9 9 9 9 9 9 9 8 8 8 9 9 9 8 7 7 7 6 6 6
6 7 9 9 8 8 8 9 7 9 6 7 4 5 1 3 3 5 6 7 8 9 9 9 9 9 8 8 8 8 8 8 8 8 8 7 7 7 6 6 6 5 5 5
9 8 9 10 12 13 10 10 9 9 7 7 4 1 4 2 4 5 6 7 8 9 10 9 9 8 9 8 8 8 7 7 6 6 6 6 6 5 5 5 5 5 5 5
12 8 9 11 6 4 12 13 13 10 8 8 8 1 6 3 4 5 7 7 8 8 9 9 9 9 8 8 8 8 7 6 6 6 6 5 5 5 5 5 4 4 4 4
11 8 10 11 10 8 10 11 12 11 8 9 9 3 6 4 4 5 6 8 8 8 9 9 10 9 9 8 8 7 7 7 6 6 6 5 5 5 4 4 3 3 3 3
8 9 12 12 9 12 13 12 12 13 11 10 11 6 4 4 5 5 6 8 8 9 9 9 9 9 8 8 7 7 6 6 6 6 6 5 4 4 4 4 3 3 2 2
8 11 11 9 4 8 12 13 14 15 13 11 8 8 4 3 4 5 6 8 9 9 9 10 9 9 9 8 8 7 7 7 6 6 6 5 5 4 4 4 4 3 3 3
6 7 10 10 8 8 9 11 12 13 11 11 8 6 1 0 3 5 6 8 9 9 9 10 9 9 9 9 9 8 8 7 7 6 6 5 5 5 5 5 5 4 3 3
7 7 9 11 10 10 12 11 11 10 8 9 9 4 2 2 3 4 6 7 8 8 9 9 9 9 9 9 9 9 9 8 8 7 6 6 6 6 6 5 5 5 5 5
7 8 8 9 9 14 6 4 7 8 7 6 5 3 2 2 2 2 3 5 6 7 8 8 8 8 8 8 9 9 9 9 8 7 7 6 6 6 6 6 6 6 5 5
6 7 8 9 13 11 5 4 6 8 7 3 4 2 1 2 3 4 2 3 4 5 6 7 7 8 8 8 9 9 9 9 8 8 7 7 7 7 7 6 6 6 6 6
6 8 9 10 12 12 6 5 3 5 7 1 2 2 2 4 5 3 3 3 4 4 5 6 7 8 8 8 9 9 9 9 8 8 7 7 7 7 7 7 6 6 6 7
10 9 12 12 11 7 3 3 5 8 2 3 2 0 2 2 2 3 4 4 5 5 6 7 7 7 7 8 9 9 9 8 8 8 8 8 7 7 7 7 6 6 7 7
9 10 11 11 12 7 4 3 3 2 4 3 2 2 2 3 5 5 5 5 6 6 6 6 6 6 6 7 8 8 8 8 8 8 8 8 7 7 7 8 7 7 7 8
5 3 3 4 2 4 3 2 3 3 2 2 3 3 2 3 4 5 5 5 6 6 5 5 6 7 6 6 7 8 8 8 9 9 8 8 7 6 7 7 7 6 6 6
4 1 2 2 1 1 2 2 3 3 3 3 3 2 2 3 4 5 5 5 5 5 5 5 7 7 6 6 6 7 8 8 9 9 9 8 8 7 6 5 5 5 5 5
2 3 3 4 2 1 1 3 3 3 3 3 3 3 2 3 4 5 5 5 5 5 5 5 6 6 6 6 6 6 7 9 9 9 8 8 8 8 7 6 5 4 4 3
4 5 5 4 1 2 1 3 3 3 3 3 3 3 3 3 4 5 5 5 5 5 5 6 6 7 6 6 6 6 7 8 9 9 8 7 7 7 7 8 8 13 10 11
Wind_Direction
194 217 218 214 228 264 257 259 260 284 334 292 279 284 251 201 203 197 194 189 186 185 173 173 177 179 179 183 188 192 193 188 184 184 188 188 190 194 198 202 200 203 207 203
200 222 222 210 211 228 238 249 248 236 321 292 288 278 241 194 207 211 204 195 186 176 170 169 173 174 181 186 194 198 195 191 192 191 190 192 189 198 199 206 203 210 213 211
216 195 186 201 209 222 231 246 260 278 282 237 279 248 190 176 188 197 208 200 189 181 174 170 171 175 179 185 192 196 194 195 197 192 188 188 186 202 202 207 207 209 210 212
226 197 192 208 215 224 228 236 258 260 265 264 282 289 185 176 192 196 202 198 189 180 172 170 172 178 185 188 187 188 190 194 199 195 196 197 200 204 207 210 206 204 209 213
207 202 206 215 217 221 230 206 236 249 259 269 249 278 252 166 214 182 185 189 183 175 171 170 174 178 180 182 182 184 186 192 197 200 200 204 211 213 208 209 205 210 211 215
206 197 218 223 210 208 180 188 204 235 249 254 258 273 275 98 348 130 155 168 171 166 164 164 164 165 171 175 177 179 184 193 198 200 203 208 213 215 214 210 209 210 209 211
205 206 205 207 192 189 204 215 220 226 230 246 157 257 287 41 1 318 172 159 164 162 161 162 164 164 167 172 176 180 186 194 198 199 203 208 213 213 215 215 213 215 212 210
201 203 199 204 212 200 209 223 238 255 255 225 182 249 353 68 53 105 148 148 153 158 158 161 163 162 166 170 174 180 186 192 196 197 200 206 211 213 216 214 215 212 216 217
206 198 175 199 212 220 204 226 245 255 265 268 236 239 213 152 144 129 132 143 151 153 153 157 157 159 164 169 172 176 179 183 191 196 195 200 207 215 218 212 213 217 213 215
209 200 175 173 185 212 240 222 218 237 247 254 234 240 225 156 152 142 143 147 147 152 153 156 158 159 162 165 166 169 172 178 186 190 195 194 199 204 209 211 211 213 210 214
216 209 175 182 202 192 194 207 221 231 248 262 254 184 86 130 152 157 153 152 155 157 156 157 159 161 163 161 159 160 164 171 177 182 183 181 187 188 191 197 203 204 208 204
208 220 206 195 183 236 213 213 211 221 224 246 270 199 106 135 154 162 156 154 156 157 157 157 157 160 164 161 159 160 164 168 172 169 168 172 177 179 183 187 193 196 208 210
189 208 205 198 197 202 216 216 220 230 234 238 248 210 124 147 165 167 162 160 161 161 160 161 160 162 164 164 164 163 166 165 167 164 163 166 172 173 176 179 180 186 200 204
200 214 226 222 208 194 204 208 212 220 228 233 243 253 183 191 193 180 172 170 168 165 165 168 165 164 164 164 164 162 158 157 159 158 157 160 169 171 172 171 166 167 171 176
206 216 226 243 232 211 212 210 208 221 240 249 247 251 238 215 207 191 179 173 172 171 171 172 171 168 168 166 166 162 159 158 155 151 153 155 158 158 157 155 151 148 148 147
209 224 214 220 215 217 220 214 212 221 232 243 250 243 231 175 171 176 181 180 180 178 176 174 173 173 174 172 171 165 163 161 156 155 156 154 151 147 143 141 139 133 128 124
196 210 214 217 206 214 221 216 215 216 223 238 242 245 220 197 181 185 185 187 185 179 176 175 176 177 177 175 171 168 164 162 160 155 155 152 144 138 133 133 130 125 118 113
205 212 218 219 201 224 215 190 220 221 222 236 259 265 255 230 189 183 182 184 182 177 173 172 170 168 168 167 165 162 159 161 159 152 149 147 142 134 131 131 128 123 118 113
213 211 220 219 218 221 190 188 208 215 216 223 245 240 206 140 168 144 121 154 163 166 164 163 163 158 154 155 157 158 159 159 158 154 150 147 145 140 137 135 128 122 120 116
191 219 226 222 231 228 198 157 190 225 216 186 256 233 204 199 218 145 102 116 128 136 143 145 143 141 143 148 152 155 158 157 156 151 145 142 143 141 138 135 130 125 121 117
190 202 220 223 229 229 94 142 191 220 207 34 16 289 217 226 352 90 103 103 112 121 127 131 133 134 137 145 148 149 149 148 145 141 137 133 137 137 134 130 126 125 121 114
214 210 213 224 230 217 76 175 211 16 21 23 28 31 56 73 85 101 106 108 112 115 121 127 127 124 129 140 143 142 140 137 137 136 132 130 135 136 133 129 126 127 127 123
230 273 246 236 231 67 55 37 25 7 4 18 18 25 80 106 103 105 105 103 104 107 112 120 123 118 119 133 142 142 139 139 136 134 132 130 130 129 131 133 136 137 137 135
183 244 247 233 174 60 58 48 43 33 19 10 18 35 100 114 111 111 107 102 104 106 115 121 121 119 117 121 129 135 136 137 136 136 135 134 131 126 121 125 132 136 140 141
225 207 223 232 234 240 101 52 38 32 31 38 46 55 86 117 120 117 113 112 111 110 112 119 122 123 122 121 121 129 138 141 138 135 133 133 130 124 113 95 69 92 84 100
234 244 249 250 245 293 351 11 9 13 27 39 54 67 85 110 118 121 118 115 116 113 111 111 114 117 118 120 121 127 140 143 142 140 139 138 136 132 130 119 94 58 62 69
Height
1517 1515 1512 1509 1509 1510 1512 1513 1513 1510 1508 1508 1506 1505 1505 1510 1512 1514 1517 1520 1522 1525 1527 1529 1530 1532 1534 1536 1537 1539 1542 1545 1548 1550 1553 1556 1559 1562 1565 1567 1568 1570 1572 1574
1516 1512 1508 1510 1513 1514 1514 1514 1512 1509 1509 1509 1506 1504 1503 1507 1510 1513 1515 1517 1520 1523 1526 1527 1528 1530 1531 1533 1535 1537 1538 1542 1545 1548 1551 1555 1558 1560 1563 1565 1566 1569 1571 1572
1509 1507 1509 1513 1514 1515 1513 1513 1511 1512 1509 1506 1507 1504 1502 1505 1509 1512 1514 1516 1518 1521 1523 1525 1526 1528 1529 1530 1532 1534 1535 1539 1543 1546 1550 1553 1556 1558 1561 1563 1564 1567 1568 1570
1506 1507 1511 1512 1512 1512 1513 1508 1510 1511 1512 1507 1509 1512 1501 1501 1504 1508 1511 1514 1516 1519 1522 1524 1525 1526 1527 1529 1530 1532 1534 1537 1541 1544 1547 1550 1553 1556 1558 1561 1563 1565 1566 1568
1506 1507 1510 1511 1508 1509 1508 1509 1509 1510 1510 1511 1506 1511 1501 1499 1502 1503 1507 1511 1514 1518 1520 1522 1524 1525 1527 1528 1530 1531 1534 1536 1539 1542 1545 1548 1551 1554 1557 1559 1560 1562 1564 1566
1501 1506 1506 1504 1505 1508 1510 1511 1511 1509 1506 1519 1510 1515 1508 1497 1501 1501 1505 1510 1513 1516 1519 1521 1523 1525 1526 1528 1529 1531 1532 1535 1537 1540 1543 1546 1549 1552 1554 1556 1558 1560 1562 1564
1507 1504 1504 1505 1506 1509 1509 1513 1519 1521 1519 1515 1508 1513 1506 1498 1500 1502 1504 1509 1512 1515 1518 1520 1522 1524 1525 1526 1528 1530 1532 1534 1536 1538 1541 1544 1546 1549 1551 1554 1556 1557 1559 1561
1506 1505 1501 1501 1502 1503 1505 1505 1517 1525 1520 1510 1511 1510 1499 1498 1501 1503 1505 1508 1511 1514 1517 1519 1522 1523 1525 1526 1528 1529 1531 1533 1535 1537 1539 1541 1544 1547 1549 1551 1553 1555 1557 1559
1496 1499 1495 1498 1498 1499 1504 1503 1494 1505 1510 1515 1506 1502 1497 1498 1500 1503 1505 1508 1511 1514 1517 1519 1521 1523 1525 1526 1527 1529 1530 1532 1534 1536 1538 1540 1542 1544 1547 1548 1550 1552 1553 1555
1490 1498 1495 1498 1500 1501 1497 1495 1502 1507 1521 1522 1511 1506 1500 1498 1499 1501 1505 1507 1510 1514 1516 1519 1521 1523 1525 1526 1527 1529 1530 1531 1533 1535 1537 1539 1541 1543 1544 1546 1548 1549 1550 1552
1488 1496 1497 1497 1498 1498 1503 1503 1500 1500 1502 1514 1516 1506 1491 1495 1497 1500 1504 1507 1510 1513 1516 1518 1521 1523 1525 1526 1527 1529 1530 1531 1533 1535 1536 1538 1540 1541 1543 1544 1546 1547 1549 1550
1489 1491 1494 1492 1490 1490 1491 1493 1498 1507 1510 1507 1506 1502 1491 1493 1496 1499 1503 1507 1510 1513 1515 1518 1520 1522 1524 1526 1527 1529 1530 1531 1533 1534 1535 1537 1538 1540 1541 1543 1544 1545 1547 1548
1489 1493 1503 1501 1499 1496 1493 1491 1491 1493 1499 1503 1507 1501 1492 1494 1497 1500 1503 1507 1510 1512 1515 1517 1520 1522 1523 1525 1527 1529 1530 1531 1533 1533 1535 1536 1537 1538 1539 1541 1542 1543 1545 1546
1489 1489 1492 1493 1487 1485 1492 1491 1491 1494 1497 1500 1498 1493 1491 1492 1495 1499 1503 1506 1509 1512 1514 1516 1519 1521 1523 1524 1526 1528 1529 1531 1532 1533 1534 1535 1536 1537 1538 1539 1541 1542 1543 1544
1488 1488 1486 1481 1479 1480 1483 1486 1489 1492 1489 1492 1490 1489 1488 1491 1494 1498 1502 1505 1508 1511 1513 1515 1518 1520 1521 1523 1525 1527 1528 1530 1531 1532 1533 1534 1534 1535 1536 1537 1539 1540 1542 1543
1487 1486 1486 1486 1482 1482 1485 1483 1485 1487 1487 1487 1487 1488 1488 1492 1495 1498 1501 1503 1506 1509 1511 1514 1516 1518 1520 1521 1523 1525 1527 1529 1530 1531 1532 1533 1533 1534 1535 1536 1538 1539 1540 1541
1485 1488 1490 1487 1483 1486 1491 1483 1483 1484 1484 1486 1487 1487 1489 1492 1495 1497 1500 1502 1504 1507 1509 1512 1514 1516 1518 1520 1521 1523 1525 1527 1529 1530 1531 1532 1532 1533 1534 1535 1537 1538 1539 1540
1487 1488 1486 1483 1491 1502 1483 1479 1480 1483 1484 1485 1486 1488 1490 1493 1496 1498 1499 1501 1503 1506 1508 1510 1512 1514 1516 1517 1519 1521 1523 1526 1527 1529 1530 1531 1532 1533 1534 1535 1536 1537 1538 1540
1486 1488 1484 1484 1489 1486 1484 1482 1482 1484 1485 1486 1487 1489 1491 1494 1495 1497 1499 1501 1503 1505 1507 1509 1511 1512 1513 1515 1517 1519 1521 1524 1526 1527 1529 1530 1531 1532 1533 1534 1535 1537 1538 1539
1487 1487 1485 1485 1490 1491 1480 1480 1484 1486 1488 1487 1488 1490 1491 1493 1490 1494 1499 1501 1502 1504 1506 1507 1509 1511 1512 1513 1515 1518 1520 1522 1524 1526 1527 1529 1531 1532 1533 1534 1535 1537 1538 1539
1485 1487 1485 1484 1486 1479 1480 1483 1486 1492 1490 1490 1491 1492 1493 1493 1494 1498 1499 1500 1501 1503 1505 1506 1508 1509 1510 1512 1514 1516 1518 1521 1523 1525 1526 1528 1530 1532 1533 1534 1535 1536 1537 1538
1479 1479 1484 1482 1486 1485 1486 1485 1486 1490 1492 1492 1493 1494 1495 1496 1496 1497 1499 1500 1501 1502 1504 1505 1507 1508 1510 1511 1513 1515 1517 1519 1522 1524 1525 1527 1529 1531 1532 1533 1534 1535 1536 1537
1481 1481 1476 1480 1484 1489 1490 1490 1493 1493 1494 1494 1494 1495 1496 1496 1497 1498 1499 1500 1501 1503 1504 1505 1506 1507 1509 1511 1512 1514 1516 1518 1520 1522 1524 1526 1528 1529 1531 1532 1533 1534 1535 1537
1485 1488 1486 1486 1486 1489 1491 1492 1493 1494 1495 1495 1495 1496 1496 1497 1498 1499 1500 1500 1502 1503 1504 1505 1506 1506 1508 1509 1511 1513 1515 1517 1519 1521 1523 1524 1526 1528 1529 1531 1533 1534 1535 1536
1485 1487 1486 1488 1489 1490 1492 1494 1495 1495 1495 1495 1495 1496 1497 1497 1498 1499 1500 1501 1502 1503 1504 1504 1505 1506 1507 1508 1510 1512 1514 1516 1517 1519 1521 1523 1525 1527 1528 1530 1531 1533 1534 1536
1488 1487 1486 1485 1490 1491 1493 1495 1495 1495 1495 1495 1495 1496 1497 1498 1498 1499 1500 1501 1502 1503 1504 1504 1505 1506 1507 1508 1509 1511 1513 1514 1517 1518 1520 1522 1524 1526 1528 1529 1531 1532 1534 1535